Branson, MO

11:40 PM CDT on May 24, 2017 (GMT -0500)
Branson

Weather History for KBBG - April, 2013

Change the Weather History Date:

Wednesday, April 10, 2013

  Actual Average (KHRO) Record (KHRO)
Temperature  
Mean Temperature 56 °F -  
Max Temperature 73 °F 68 °F 96 °F (1930)
Min Temperature 37 °F 44 °F 25 °F (1928)
Degree Days  
Heating Degree Days 9    
Growing Degree Days 6 (Base 50)    
Moisture  
Dew Point 52 °F    
Average Humidity 79    
Maximum Humidity 100    
Minimum Humidity 64    
Precipitation  
Precipitation 0.00 in - - ()
Sea Level Pressure  
Sea Level Pressure 29.79 in    
Wind  
Wind Speed 10 mph (SW)    
Max Wind Speed 20 mph    
Max Gust Speed 28 mph    
Visibility 9 miles    
Events Rain , Thunderstorm    
Averages and records for this station are not official NWS values.
T = Trace of Precipitation, MM = Missing Value Source: NWS Daily Summary

Daily Weather History Graph

Daily Weather History Graph

Search for Another Location

Airport or City:

Trip Planner

Search our weather history database for the weather conditions in past years. The results will help you decide how hot, cold, wet, or windy it might be!

Date:

Astronomy

Apr. 10, 2013 Rise Set
Actual Time 6:45 AM CDT 7:42 PM CDT
Civil Twilight 6:19 AM CDT 8:09 PM CDT
Nautical Twilight 5:48 AM CDT 8:40 PM CDT
Astronomical Twilight 5:15 AM CDT 9:13 PM CDT
Moon 6:42 AM CDT (4/10) 8:17 PM CDT (4/10)
Length of Visible Light 13h 50m
Length of Day
12h 57m
New Moon, 0% of the Moon is Illuminated
Apr 10
New Moon
Apr 18
First Quarter
Apr 25
Full
May 2
Last Quarter
May 9
New

Hourly Weather History & Observations

Time (CDT) Temp. Windchill Dew Point Humidity Pressure Visibility Wind Dir Wind Speed Gust Speed Precip Events Conditions
12:15 AM 71.6 °F - 59.0 °F 64% 29.78 in 10.0 mi South 10.4 mph 18.4 mph N/A   Scattered Clouds
12:35 AM 73.4 °F - 60.8 °F 65% 29.78 in 10.0 mi SSE 11.5 mph 20.7 mph N/A   Overcast
12:55 AM 73.4 °F - 60.8 °F 65% 29.78 in 10.0 mi South 9.2 mph 18.4 mph N/A   Overcast
1:15 AM 73.4 °F - 60.8 °F 65% 29.79 in 10.0 mi South 12.7 mph 19.6 mph N/A   Overcast
1:35 AM 73.4 °F - 60.8 °F 65% 29.79 in 10.0 mi South 11.5 mph 17.3 mph N/A   Overcast
1:55 AM 73.4 °F - 60.8 °F 65% 29.78 in 10.0 mi South 11.5 mph 19.6 mph N/A   Overcast
2:15 AM 73.4 °F - 60.8 °F 65% 29.78 in 10.0 mi South 6.9 mph 18.4 mph N/A   Overcast
2:35 AM 73.4 °F - 62.6 °F 69% 29.78 in 10.0 mi South 8.1 mph 19.6 mph N/A   Overcast
2:55 AM 73.4 °F - 62.6 °F 69% 29.78 in 10.0 mi South 12.7 mph - N/A   Overcast
3:15 AM 73.4 °F - 62.6 °F 69% 29.77 in 10.0 mi South 10.4 mph 17.3 mph N/A   Overcast
3:35 AM 71.6 °F - 62.6 °F 73% 29.77 in 10.0 mi South 9.2 mph - N/A   Overcast
3:55 AM 71.6 °F - 62.6 °F 73% 29.78 in 10.0 mi South 10.4 mph 17.3 mph N/A   Overcast
4:15 AM 71.6 °F - 62.6 °F 73% 29.78 in 10.0 mi South 10.4 mph - N/A   Overcast
4:35 AM 71.6 °F - 62.6 °F 73% 29.79 in 10.0 mi South 8.1 mph - N/A   Overcast
4:55 AM 71.6 °F - 62.6 °F 73% 29.78 in 10.0 mi South 9.2 mph - N/A   Overcast
5:15 AM 71.6 °F - 62.6 °F 73% 29.78 in 10.0 mi SSE 8.1 mph - N/A   Overcast
5:35 AM 71.6 °F - 60.8 °F 69% 29.77 in 10.0 mi SSE 9.2 mph - N/A Thunderstorm Overcast
5:55 AM 71.6 °F - 60.8 °F 69% 29.77 in 10.0 mi SSE 9.2 mph - N/A   Overcast
6:15 AM 71.6 °F - 62.6 °F 73% 29.78 in 10.0 mi South 9.2 mph 16.1 mph N/A Rain Light Rain
6:35 AM 71.6 °F - 60.8 °F 69% 29.79 in 10.0 mi South 8.1 mph - N/A   Overcast
6:45 AM 71.6 °F - 60.8 °F 69% 29.80 in 10.0 mi South 6.9 mph - N/A   Overcast
7:45 AM 62.6 °F - 59.0 °F 88% 29.81 in 10.0 mi NW 4.6 mph - N/A   Overcast
8:48 AM 57.2 °F - 53.6 °F 88% 29.84 in 10.0 mi WNW 6.9 mph - N/A   Overcast
9:46 AM 60.8 °F - 55.4 °F 82% 29.82 in 10.0 mi NNW 4.6 mph - N/A   Overcast
10:45 AM 64.4 °F - 55.4 °F 73% 29.82 in 10.0 mi NNW 4.6 mph - N/A   Overcast
11:45 AM 60.8 °F - 53.6 °F 77% 29.82 in 10.0 mi WNW 6.9 mph - N/A   Overcast
12:55 PM 66.2 °F - 55.4 °F 68% 29.78 in 10.0 mi WNW 6.9 mph - N/A   Overcast
1:58 PM 66.2 °F - 53.6 °F 64% 29.76 in 10.0 mi NW 5.8 mph - N/A   Overcast
2:45 PM 64.4 °F - 53.6 °F 68% 29.74 in 10.0 mi WNW 8.1 mph - N/A   Overcast
3:45 PM 57.2 °F - 46.4 °F 67% 29.72 in 9.0 mi WNW 13.8 mph 25.3 mph N/A Rain , Thunderstorm Light Thunderstorms and Rain
4:31 PM 48.2 °F - 42.8 °F 82% 29.74 in 10.0 mi WNW 12.7 mph 27.6 mph N/A Rain , Thunderstorm Light Thunderstorms and Rain
4:45 PM 48.2 °F - 42.8 °F 82% 29.75 in 7.0 mi West 19.6 mph 27.6 mph N/A Rain , Thunderstorm Light Thunderstorms and Rain
5:31 PM 44.6 °F 39.2 °F 41.0 °F 87% 29.81 in 1.8 mi West 10.4 mph - N/A Rain , Thunderstorm Light Thunderstorms and Rain
5:55 PM 42.8 °F 35.8 °F 41.0 °F 93% 29.72 in 2.0 mi NW 13.8 mph 20.7 mph N/A Rain , Thunderstorm Light Thunderstorms and Rain
6:58 PM 41.0 °F - 41.0 °F 100% 29.78 in 7.0 mi Calm Calm - N/A Rain Light Rain
7:55 PM 41.0 °F 35.2 °F 39.2 °F 93% 29.74 in 10.0 mi West 9.2 mph 19.6 mph N/A Rain Light Rain
8:55 PM 39.2 °F 32.0 °F 39.2 °F 100% 29.77 in 10.0 mi West 11.5 mph 17.3 mph N/A   Overcast
9:15 PM 39.2 °F 32.5 °F 39.2 °F 100% 29.80 in 10.0 mi West 10.4 mph 16.1 mph N/A   Overcast
9:35 PM 39.2 °F 33.0 °F 39.2 °F 100% 29.82 in 9.0 mi West 9.2 mph 16.1 mph N/A   Overcast
9:55 PM 39.2 °F 32.5 °F 37.4 °F 93% 29.82 in 3.0 mi WNW 10.4 mph 19.6 mph N/A   Overcast
10:15 PM 39.2 °F 33.6 °F 37.4 °F 93% 29.83 in 3.0 mi West 8.1 mph 20.7 mph N/A   Overcast
10:35 PM 39.2 °F 34.2 °F 37.4 °F 93% 29.84 in 9.0 mi West 6.9 mph - N/A   Overcast
10:55 PM 39.2 °F 35.0 °F 37.4 °F 93% 29.84 in 10.0 mi West 5.8 mph - N/A   Overcast
11:15 PM 39.2 °F 33.0 °F 37.4 °F 93% 29.84 in 10.0 mi West 9.2 mph - N/A   Overcast
11:35 PM 39.2 °F 35.0 °F 37.4 °F 93% 29.85 in 9.0 mi West 5.8 mph - N/A   Overcast
11:55 PM 37.4 °F 31.4 °F 37.4 °F 100% 29.85 in 10.0 mi West 8.1 mph - N/A   Overcast